This demonstration page uses our WeatherBlox Daily Observations layout. Learn more.

Left ArrowRight Arrow

Hourly Observations for December 5, 2021

Temp ( °F °C ) Dew Point ( °F °C ) Humidity (%) Winds ( mph kmh ) Pressure ( in mb ) Visibility ( mi km ) Precip ( " mm )
12:15 am 00:15 Clear 33 0.6 31 -0.5 92 92 S 5 7 29.94 1014 10 16 N/A
12:35 am 00:35 Clear 33 0.4 31 -0.7 92 92 S 7 11 29.92 1013 10 16 N/A
12:55 am 00:55 Clear 34 1.1 31 -0.5 89 89 S 9 15 29.90 1013 10 16 N/A
1:15 am 01:15 Clear 35 1.6 31 -0.5 86 86 S 10 17 29.89 1012 10 16 N/A
1:35 am 01:35 Clear 35 1.8 31 -0.5 85 85 S 10 17 29.87 1011 10 16 N/A
1:55 am 01:55 Clear 36 2.1 31 -0.5 83 83 S 12 19 29.85 1011 10 16 N/A
2:15 am 02:15 Clear 37 2.7 32 -0.2 81 81 SSW 9 15 29.84 1010 10 16 N/A
2:35 am 02:35 Clear 37 2.6 32 -0.2 82 82 SSW 13 20 29.83 1010 10 16 N/A
2:55 am 02:55 Clear 37 2.6 32 undefined 83 83 SSW 16 26 29.82 1010 10 16 N/A
3:15 am 03:15 Clear 37 2.6 32 undefined 83 83 SSW 14 22 29.81 1009 10 16 N/A
3:35 am 03:35 Clear 37 2.6 32 undefined 83 83 SSW 13 20 29.79 1009 10 16 N/A
3:55 am 03:55 Clear 37 2.5 32 undefined 84 84 SSW 13 20 29.78 1008 10 16 N/A
4:15 am 04:15 Clear 37 2.6 32 0.1 84 84 SSW 16 26 29.76 1008 10 16 N/A
4:35 am 04:35 Clear 37 2.7 32 0.1 83 83 SSW 15 24 29.75 1007 10 16 N/A
4:55 am 04:55 Clear 37 2.6 32 0.2 84 84 SSW 12 19 29.74 1007 10 16 N/A
5:15 am 05:15 Clear 37 2.6 32 0.2 84 84 SSW 13 20 29.73 1007 10 16 N/A
5:35 am 05:35 Clear 37 2.6 33 0.5 86 86 SW 13 20 29.72 1006 10 16 N/A
5:55 am 05:55 Clear 37 2.5 33 0.3 86 86 SW 9 15 29.72 1006 10 16 N/A
6:15 am 06:15 Clear 36 2.2 32 0.2 87 87 SW 9 15 29.72 1007 10 16 N/A
6:35 am 06:35 Clear 36 2.1 32 0.1 87 87 WSW 3 6 29.74 1007 10 16 N/A
6:55 am 06:55 Clear 35 1.8 32 undefined 88 88 W 5 7 29.76 1008 10 16 N/A
7:15 am 07:15 Clear 33 0.6 31 -0.7 91 91 W 8 13 29.77 1008 10 16 N/A
7:35 am 07:35 Clear 33 0.3 30 -0.9 92 92 WNW 7 11 29.77 1008 10 16 N/A
7:55 am 07:55 Sunny 32 -0.2 30 -1.3 92 92 W 5 7 29.78 1008 10 16 N/A
8:15 am 08:15 Sunny 32 -0.1 30 -1.2 92 92 WNW 6 9 29.78 1009 10 16 N/A
8:35 am 08:35 Sunny 34 1.1 32 undefined 92 92 NW 7 11 29.77 1008 10 16 N/A
8:55 am 08:55 Sunny 37 3 34 0.9 86 86 NW 9 15 29.76 1008 10 16 N/A
9:15 am 09:15 Sunny 42 5.4 34 1 74 74 NW 10 17 29.74 1007 10 16 N/A
9:35 am 09:35 Sunny 43 6 33 0.6 69 69 NNW 10 17 29.74 1007 10 16 N/A
9:55 am 09:55 Sunny 43 5.9 33 0.6 69 69 NNW 8 13 29.74 1007 10 16 N/A
10:15 am 10:15 Sunny 43 6.1 33 0.5 68 68 NNW 12 19 29.75 1007 10 16 N/A
10:35 am 10:35 Sunny 45 7.3 33 0.7 63 63 NNW 13 20 29.75 1007 10 16 N/A
10:55 am 10:55 Sunny 47 8.6 34 0.9 59 59 N 15 24 29.74 1007 10 16 N/A
11:15 am 11:15 Sunny 50 10.2 32 0.1 50 50 N 15 24 29.73 1007 10 16 N/A
11:35 am 11:35 Sunny 51 10.5 31 -0.7 46 46 N 21 33 29.73 1007 10 16 N/A
11:55 am 11:55 Sunny 53 11.7 27 -2.7 37 37 N 23 37 29.71 1006 10 16 N/A
12:15 pm 12:15 Sunny 54 12 26 -3.2 35 35 N 24 39 29.71 1006 10 16 N/A
12:35 pm 12:35 Sunny 53 11.5 26 -3.5 35 35 N 21 33 29.71 1006 10 16 N/A
12:55 pm 12:55 Sunny 53 11.5 25 -4.1 34 34 N 23 37 29.72 1006 10 16 N/A
1:15 pm 13:15 Sunny 53 11.8 25 -4 33 33 N 18 30 29.72 1006 10 16 N/A
1:35 pm 13:35 Sunny 53 11.7 23 -4.8 31 31 N 22 35 29.74 1007 10 16 N/A
1:55 pm 13:55 Sunny 53 11.5 23 -5 31 31 N 24 39 29.75 1007 10 16 N/A
2:15 pm 14:15 Sunny 53 11.5 22 -5.7 30 30 N 22 35 29.75 1007 10 16 N/A
2:35 pm 14:35 Sunny 53 11.8 21 -5.9 29 29 N 22 35 29.77 1008 10 16 N/A
2:55 pm 14:55 Sunny 50 9.8 20 -6.5 31 31 N 24 39 29.79 1009 10 16 N/A
3:15 pm 15:15 Sunny 47 8.4 21 -6.1 36 36 N 22 35 29.85 1011 10 16 N/A
3:35 pm 15:35 Sunny 46 7.9 23 -5.2 39 39 N 23 37 29.88 1012 10 16 N/A
3:55 pm 15:55 Sunny 44 6.8 22 -5.3 42 42 N 24 39 29.91 1013 10 16 N/A
4:15 pm 16:15 Sunny 42 5.7 22 -5.6 44 44 N 20 31 29.94 1014 10 16 N/A
4:35 pm 16:35 Sunny 42 5.5 19 -7.1 40 40 N 18 30 29.96 1015 10 16 N/A
4:55 pm 16:55 Sunny 41 4.8 19 -7.1 42 42 N 17 28 29.98 1015 10 16 N/A
5:15 pm 17:15 Clear 40 4.5 19 -7.2 43 43 NNW 17 28 30.02 1017 10 16 N/A
5:35 pm 17:35 Mostly Cloudy 39 4 19 -7.3 44 44 NNW 9 15 30.03 1017 10 16 N/A
5:55 pm 17:55 Cloudy 41 5 19 -7.5 40 40 NNW 15 24 30.03 1017 10 16 N/A
6:15 pm 18:15 Cloudy 41 4.8 18 -7.7 40 40 NW 13 20 30.05 1018 10 16 N/A
6:35 pm 18:35 Cloudy 40 4.5 19 -7.5 42 42 NW 13 20 30.07 1018 10 16 N/A
6:55 pm 18:55 Cloudy 39 4.1 17 -8.3 40 40 NW 13 20 30.10 1019 10 16 N/A
7:15 pm 19:15 Partly Cloudy 38 3.4 16 -8.8 41 41 NW 12 19 30.09 1019 10 16 N/A
7:35 pm 19:35 Clear 37 2.5 17 -8.5 44 44 NW 10 17 30.12 1020 10 16 N/A
7:55 pm 19:55 Clear 35 1.8 16 -8.7 46 46 N 22 35 30.16 1021 10 16 N/A
8:15 pm 20:15 Clear 35 1.5 15 -9.5 44 44 N 20 31 30.18 1022 10 16 N/A
8:35 pm 20:35 Clear 34 1.1 14 -9.8 44 44 NNW 21 33 30.19 1023 10 16 N/A
8:55 pm 20:55 Clear 33 0.7 14 -10 45 45 NNW 18 30 30.21 1023 10 16 N/A
9:15 pm 21:15 Clear 33 0.3 14 -10.1 46 46 NNW 16 26 30.23 1024 10 16 N/A
9:35 pm 21:35 Clear 32 undefined 14 -9.9 48 48 NNW 15 24 30.26 1025 10 16 N/A
9:55 pm 21:55 Clear 32 -0.2 14 -10 48 48 NNW 14 22 30.27 1025 10 16 N/A
10:15 pm 22:15 Clear 31 -0.6 14 -10 49 49 N 14 22 30.28 1025 10 16 N/A
10:35 pm 22:35 Clear 31 -0.5 15 -9.7 50 50 NNW 16 26 30.30 1026 10 16 N/A
10:55 pm 22:55 Clear 31 -0.6 14 -9.9 50 50 NNW 16 26 30.30 1026 10 16 N/A
11:15 pm 23:15 Clear 30 -1 13 -10.3 50 50 NNW 12 19 30.31 1026 10 16 N/A
11:35 pm 23:35 Clear 30 -1.2 14 -10 52 52 NNW 12 19 30.31 1026 10 16 N/A
11:55 pm 23:55 Clear 29 -1.5 14 -9.8 54 54 NNW 13 20 30.32 1027 10 16 N/A

Powered by AerisWeather